�������l�o���
Date,Time,MP-1(��Sv/h),MP-2(��Sv/h),MP-3(��Sv/h),MP-4(��Sv/h),MP-5(��Sv/h),MP-6(��Sv/h),MP-7(��Sv/h),����,����(m/s),���J
2021/02/24,00:00,0.177,0.160,0.258,0.244,0.239,0.140,0.085,���k��,10.1,��
2021/02/24,00:10,0.178,0.160,0.258,0.245,0.238,0.139,0.085,���k��,8.8,��
2021/02/24,00:20,0.178,0.161,0.258,0.245,0.238,0.140,0.085,�k��,6.8,��
2021/02/24,00:30,0.177,0.160,0.259,0.244,0.238,0.141,0.085,�k�k��,5.9,��
2021/02/24,00:40,0.178,0.160,0.258,0.245,0.239,0.140,0.086,�k��,6.6,��
2021/02/24,00:50,0.178,0.160,0.261,0.245,0.239,0.140,0.085,�k�k��,3.5,��
2021/02/24,01:00,0.178,0.159,0.259,0.246,0.238,0.140,0.085,�k�k��,3.1,��
2021/02/24,01:10,0.178,0.160,0.259,0.244,0.240,0.139,0.085,�k�k��,3.2,��
2021/02/24,01:20,0.178,0.161,0.259,0.247,0.238,0.140,0.085,�k,2.4,��
2021/02/24,01:30,0.178,0.160,0.259,0.246,0.239,0.140,0.086,�k�k��,2.9,��
2021/02/24,01:40,0.179,0.160,0.260,0.246,0.239,0.140,0.085,�k�k��,3.9,��
2021/02/24,01:50,0.178,0.160,0.259,0.245,0.239,0.140,0.085,���k��,2.2,��
2021/02/24,02:00,0.177,0.159,0.259,0.245,0.239,0.139,0.085,�k��,2.2,��
2021/02/24,02:10,0.178,0.160,0.258,0.246,0.240,0.139,0.085,�k��,2.2,��
2021/02/24,02:20,0.178,0.160,0.259,0.245,0.239,0.139,0.085,�k��,4.1,��
2021/02/24,02:30,0.178,0.161,0.259,0.246,0.240,0.139,0.085,�k�k��,4.7,��
2021/02/24,02:40,0.178,0.160,0.258,0.245,0.239,0.140,0.084,�k�k��,4.2,��
2021/02/24,02:50,0.178,0.160,0.259,0.244,0.239,0.139,0.085,�k�k��,2.6,��
2021/02/24,03:00,0.178,0.159,0.259,0.245,0.239,0.139,0.086,�k,1.7,��
2021/02/24,03:10,0.178,0.160,0.259,0.244,0.239,0.139,0.085,�k,2.7,��
2021/02/24,03:20,0.177,0.160,0.258,0.245,0.239,0.140,0.085,�k,3.1,��
2021/02/24,03:30,0.178,0.161,0.259,0.246,0.238,0.140,0.085,�k�k��,2.0,��
2021/02/24,03:40,0.177,0.160,0.259,0.246,0.239,0.140,0.085,�k,2.5,��
2021/02/24,03:50,0.178,0.160,0.258,0.243,0.239,0.140,0.084,�k�k��,1.8,��
2021/02/24,04:00,0.178,0.160,0.258,0.245,0.238,0.139,0.084,-,CALM,��
2021/02/24,04:10,0.178,0.160,0.257,0.245,0.238,0.140,0.085,�k��,2.0,��
2021/02/24,04:20,0.177,0.161,0.257,0.245,0.239,0.139,0.085,�k��,1.8,��
2021/02/24,04:30,0.178,0.161,0.258,0.244,0.239,0.138,0.085,�k��,3.6,��
2021/02/24,04:40,0.178,0.159,0.258,0.245,0.239,0.138,0.085,���k��,4.0,��
2021/02/24,04:50,0.177,0.160,0.258,0.245,0.238,0.140,0.085,���k��,4.0,��
2021/02/24,05:00,0.178,0.159,0.258,0.246,0.240,0.140,0.085,���k��,5.4,��
2021/02/24,05:10,0.178,0.161,0.259,0.245,0.239,0.140,0.085,�k��,4.8,��
2021/02/24,05:20,0.178,0.160,0.259,0.245,0.239,0.140,0.085,�k��,4.3,��
2021/02/24,05:30,0.178,0.159,0.259,0.245,0.239,0.140,0.085,�k�k��,2.6,��
2021/02/24,05:40,0.177,0.160,0.258,0.245,0.239,0.140,0.085,�k�k��,2.2,��
2021/02/24,05:50,0.177,0.160,0.259,0.245,0.240,0.139,0.085,�k��,1.5,��
2021/02/24,06:00,0.177,0.160,0.259,0.245,0.241,0.140,0.085,�k��,1.8,��
2021/02/24,06:10,0.178,0.160,0.259,0.245,0.239,0.140,0.085,�k�k��,2.5,��
2021/02/24,06:20,0.178,0.161,0.259,0.245,0.239,0.139,0.085,�k�k��,2.4,��
2021/02/24,06:30,0.178,0.160,0.259,0.245,0.238,0.139,0.085,�k�k��,1.8,��
2021/02/24,06:40,0.179,0.160,0.259,0.245,0.239,0.139,0.085,�k,1.9,��
2021/02/24,06:50,0.179,0.160,0.257,0.245,0.239,0.140,0.085,�k,1.8,��
2021/02/24,07:00,0.177,0.160,0.258,0.245,0.239,0.140,0.085,�k�k��,1.8,��
2021/02/24,07:10,0.178,0.160,0.259,0.245,0.239,0.140,0.085,�k�k��,1.8,��
2021/02/24,07:20,0.178,0.159,0.259,0.245,0.240,0.140,0.085,�k�k��,2.8,��
2021/02/24,07:30,0.178,0.160,0.258,0.245,0.239,0.139,0.085,���k��,2.2,��
2021/02/24,07:40,0.177,0.159,0.258,0.244,0.240,0.140,0.085,�k��,2.0,��
2021/02/24,07:50,0.178,0.160,0.259,0.244,0.239,0.139,0.084,�k�k��,2.1,��
2021/02/24,08:00,0.178,0.160,0.258,0.245,0.237,0.140,0.085,�k,3.0,��
2021/02/24,08:10,0.178,0.161,0.258,0.244,0.239,0.140,0.085,�k�k��,2.6,��
2021/02/24,08:20,0.178,0.160,0.259,0.245,0.240,0.140,0.085,�k,1.9,��
2021/02/24,08:30,0.177,0.160,0.260,0.245,0.239,0.140,0.085,�k��,0.9,��
2021/02/24,08:40,0.179,0.159,0.258,0.244,0.239,0.140,0.086,-,CALM,��
2021/02/24,08:50,0.178,0.160,0.259,0.246,0.238,0.141,0.085,-,CALM,��
2021/02/24,09:00,0.179,0.160,0.258,0.245,0.239,0.139,0.085,�k�k��,1.7,��
2021/02/24,09:10,0.178,0.160,0.260,0.245,0.239,0.140,0.085,�k��,1.0,��
2021/02/24,09:20,0.177,0.159,0.259,0.245,0.240,0.140,0.086,���k��,1.6,��
2021/02/24,09:30,0.179,0.160,0.259,0.246,0.239,0.140,0.086,�k��,1.8,��
2021/02/24,09:40,0.178,0.160,0.259,0.245,0.239,0.139,0.085,�k�k��,1.4,��
2021/02/24,09:50,0.178,0.159,0.258,0.244,0.239,0.140,0.085,��,2.0,��
2021/02/24,10:00,0.178,0.160,0.257,0.245,0.240,0.139,0.086,��,1.5,��
2021/02/24,10:10,0.177,0.160,0.259,0.245,0.239,0.140,0.085,���k��,3.8,��
2021/02/24,10:20,0.178,0.159,0.258,0.246,0.239,0.140,0.086,���k��,4.1,��
2021/02/24,10:30,0.178,0.159,0.257,0.243,0.238,0.139,0.086,�k��,3.1,��
2021/02/24,10:40,0.177,0.160,0.257,0.245,0.239,0.140,0.085,���k��,2.2,��
2021/02/24,10:50,0.178,0.160,0.256,0.244,0.240,0.140,0.085,�k��,3.7,��
2021/02/24,11:00,0.179,0.160,0.257,0.244,0.238,0.140,0.084,���k��,6.2,��
2021/02/24,11:10,0.176,0.159,0.257,0.245,0.241,0.140,0.085,���k��,7.0,��
2021/02/24,11:20,0.177,0.159,0.257,0.245,0.237,0.140,0.084,��,8.7,��
2021/02/24,11:30,0.178,0.159,0.257,0.245,0.239,0.141,0.085,��,6.2,��
2021/02/24,11:40,0.177,0.160,0.256,0.245,0.239,0.140,0.085,��,6.5,��
2021/02/24,11:50,0.178,0.160,0.256,0.243,0.238,0.140,0.085,���k��,6.3,��
2021/02/24,12:00,0.176,0.161,0.257,0.245,0.240,0.140,0.085,���k��,9.2,��
2021/02/24,12:10,0.177,0.160,0.258,0.244,0.238,0.139,0.084,��,12.9,��
2021/02/24,12:20,0.178,0.159,0.258,0.246,0.239,0.140,0.085,��,10.0,��
2021/02/24,12:30,0.176,0.160,0.259,0.245,0.239,0.140,0.085,���k��,10.1,��
2021/02/24,12:40,0.177,0.160,0.258,0.245,0.239,0.141,0.085,���k��,11.5,��
2021/02/24,12:50,0.177,0.160,0.259,0.246,0.240,0.140,0.085,��,9.8,��
2021/02/24,13:00,0.177,0.159,0.259,0.244,0.237,0.140,0.085,��,8.8,��
2021/02/24,13:10,0.177,0.160,0.258,0.246,0.240,0.139,0.085,��,13.7,��
2021/02/24,13:20,0.177,0.160,0.259,0.245,0.239,0.140,0.085,���k��,10.3,��
2021/02/24,13:30,0.178,0.161,0.259,0.244,0.240,0.140,0.085,��,12.9,��
2021/02/24,13:40,0.178,0.159,0.257,0.244,0.239,0.140,0.085,��,13.7,��
2021/02/24,13:50,0.177,0.159,0.257,0.245,0.240,0.140,0.085,���k��,8.4,��
2021/02/24,14:00,0.177,0.160,0.259,0.247,0.239,0.140,0.085,��,12.6,��
2021/02/24,14:10,0.177,0.161,0.259,0.245,0.239,0.140,0.085,��,10.9,��
2021/02/24,14:20,0.177,0.160,0.260,0.244,0.241,0.141,0.085,��,12.8,��
2021/02/24,14:30,0.178,0.160,0.259,0.245,0.239,0.139,0.085,��,9.2,��
2021/02/24,14:40,0.177,0.162,0.259,0.245,0.239,0.140,0.085,���k��,8.2,��
2021/02/24,14:50,0.177,0.160,0.260,0.244,0.240,0.139,0.085,��,11.1,��
2021/02/24,15:00,0.177,0.160,0.260,0.246,0.239,0.139,0.085,���k��,8.8,��
2021/02/24,15:10,0.177,0.161,0.259,0.246,0.241,0.139,0.085,���k��,7.1,��
2021/02/24,15:20,0.177,0.159,0.259,0.246,0.241,0.139,0.085,���k��,6.8,��
2021/02/24,15:30,0.177,0.160,0.259,0.246,0.239,0.139,0.085,���k��,6.4,��
2021/02/24,15:40,0.178,0.161,0.259,0.246,0.240,0.139,0.085,���k��,6.8,��
2021/02/24,15:50,0.179,0.160,0.260,0.246,0.241,0.140,0.084,���k��,10.1,��
2021/02/24,16:00,0.178,0.160,0.259,0.246,0.239,0.139,0.084,���k��,7.7,��
2021/02/24,16:10,0.178,0.161,0.259,0.246,0.240,0.139,0.085,��,9.5,��
2021/02/24,16:20,0.178,0.160,0.258,0.246,0.239,0.140,0.085,���k��,8.2,��
2021/02/24,16:30,0.177,0.159,0.260,0.246,0.240,0.140,0.085,���k��,7.7,��
2021/02/24,16:40,0.180,0.160,0.260,0.245,0.239,0.140,0.085,���k��,9.0,��
2021/02/24,16:50,0.178,0.161,0.260,0.245,0.239,0.140,0.085,���k��,7.9,��
2021/02/24,17:00,0.177,0.162,0.260,0.245,0.240,0.141,0.085,��,9.8,��
2021/02/24,17:10,0.178,0.161,0.260,0.245,0.240,0.140,0.084,��,10.3,��
2021/02/24,17:20,0.177,0.161,0.260,0.245,0.238,0.140,0.086,��,9.2,��
2021/02/24,17:30,0.178,0.161,0.260,0.246,0.240,0.140,0.085,��,8.2,��
2021/02/24,17:40,0.178,0.160,0.259,0.246,0.239,0.141,0.085,���k��,7.1,��
2021/02/24,17:50,0.178,0.161,0.260,0.246,0.241,0.139,0.086,���k��,6.8,��
2021/02/24,18:00,0.178,0.160,0.259,0.246,0.239,0.140,0.085,���k��,6.1,��
2021/02/24,18:10,0.178,0.160,0.259,0.245,0.239,0.140,0.085,���k��,5.4,��
2021/02/24,18:20,0.178,0.160,0.259,0.246,0.239,0.140,0.086,���k��,6.1,��
2021/02/24,18:30,0.178,0.160,0.259,0.246,0.240,0.141,0.085,���k��,6.6,��
2021/02/24,18:40,0.177,0.160,0.259,0.245,0.240,0.140,0.085,���k��,5.6,��
2021/02/24,18:50,0.178,0.159,0.259,0.244,0.239,0.139,0.085,�k��,6.0,��
2021/02/24,19:00,0.179,0.160,0.260,0.246,0.238,0.140,0.085,�k��,7.3,��
2021/02/24,19:10,0.177,0.160,0.259,0.245,0.239,0.141,0.085,���k��,8.1,��
2021/02/24,19:20,0.177,0.161,0.260,0.246,0.239,0.140,0.084,���k��,5.0,��
2021/02/24,19:30,0.179,0.160,0.259,0.245,0.239,0.140,0.086,���k��,5.5,��
2021/02/24,19:40,0.178,0.160,0.260,0.246,0.240,0.139,0.085,���k��,7.0,��
2021/02/24,19:50,0.178,0.159,0.259,0.246,0.239,0.141,0.085,��,10.1,��
2021/02/24,20:00,0.178,0.160,0.260,0.246,0.241,0.140,0.085,���k��,9.5,��
2021/02/24,20:10,0.178,0.160,0.260,0.246,0.238,0.141,0.085,���k��,7.3,��
2021/02/24,20:20,0.178,0.160,0.260,0.245,0.240,0.139,0.085,���k��,6.5,��
2021/02/24,20:30,0.177,0.160,0.260,0.245,0.239,0.139,0.085,���k��,4.2,��
2021/02/24,20:40,0.177,0.159,0.260,0.247,0.239,0.140,0.085,�k��,5.3,��
2021/02/24,20:50,0.178,0.161,0.259,0.245,0.239,0.140,0.086,��,8.1,��
2021/02/24,21:00,0.179,0.160,0.259,0.246,0.240,0.140,0.085,���k��,4.4,��
2021/02/24,21:10,0.178,0.161,0.260,0.245,0.239,0.140,0.085,�k��,6.7,��
2021/02/24,21:20,0.178,0.161,0.260,0.246,0.240,0.140,0.085,�k��,6.1,��
2021/02/24,21:30,0.177,0.161,0.260,0.245,0.239,0.140,0.084,���k��,5.6,��
2021/02/24,21:40,0.177,0.161,0.261,0.246,0.239,0.141,0.086,�k��,6.2,��
2021/02/24,21:50,0.179,0.160,0.259,0.245,0.240,0.140,0.085,���k��,4.9,��
2021/02/24,22:00,0.178,0.161,0.260,0.246,0.239,0.140,0.085,���k��,5.2,��
2021/02/24,22:10,0.178,0.160,0.260,0.244,0.239,0.140,0.084,�k��,4.2,��
2021/02/24,22:20,0.178,0.160,0.260,0.245,0.238,0.140,0.085,���k��,5.9,��
2021/02/24,22:30,0.178,0.160,0.260,0.246,0.240,0.139,0.085,���k��,5.4,��
2021/02/24,22:40,0.178,0.160,0.259,0.246,0.239,0.140,0.085,���k��,7.6,��
2021/02/24,22:50,0.178,0.161,0.260,0.246,0.240,0.139,0.085,���k��,6.5,��
2021/02/24,23:00,0.178,0.160,0.259,0.246,0.239,0.140,0.085,��,9.0,��
2021/02/24,23:10,0.178,0.160,0.259,0.245,0.240,0.139,0.084,���k��,7.3,��
2021/02/24,23:20,0.178,0.160,0.259,0.245,0.239,0.140,0.085,��,7.6,��
2021/02/24,23:30,0.177,0.160,0.259,0.245,0.239,0.139,0.085,���k��,10.4,��
2021/02/24,23:40,0.177,0.160,0.258,0.244,0.239,0.140,0.084,���k��,7.6,��
2021/02/24,23:50,0.177,0.160,0.260,0.245,0.239,0.139,0.085,���k��,9.3,��
